Temp
-8 -8 -8 -9 -9 -10 -10 -11 -12 -12 -12 -13 -14 -14 -14 -14 -13 -11 -11 -12 -11 -12 -12 -11 -11 -11 -9 -9 -9 -9 -9 -9 -9 -8 -8 -9 -9 -8 -8 -8 -8 -8 -8 -7 -7
-8 -9 -9 -9 -9 -10 -11 -12 -12 -13 -12 -14 -14 -13 -13 -14 -13 -11 -14 -12 -12 -12 -12 -11 -12 -11 -10 -9 -9 -9 -8 -8 -9 -9 -9 -9 -9 -8 -8 -9 -9 -8 -8 -7 -7
-8 -9 -9 -9 -10 -10 -11 -12 -12 -13 -13 -14 -14 -14 -14 -14 -13 -14 -13 -13 -13 -13 -13 -12 -12 -12 -10 -10 -9 -9 -8 -8 -9 -10 -9 -9 -9 -9 -8 -9 -9 -8 -8 -8 -8
-9 -9 -9 -10 -10 -11 -12 -12 -13 -13 -13 -14 -14 -14 -14 -14 -14 -14 -14 -13 -13 -13 -13 -12 -12 -11 -11 -10 -9 -9 -9 -9 -10 -10 -10 -10 -10 -9 -9 -9 -9 -9 -8 -8 -8
-9 -9 -10 -10 -11 -11 -12 -13 -14 -13 -14 -15 -15 -15 -15 -15 -15 -15 -15 -14 -13 -13 -13 -13 -12 -11 -11 -10 -10 -9 -9 -9 -10 -10 -10 -10 -10 -10 -9 -9 -9 -9 -9 -9 -8
-9 -10 -10 -11 -11 -12 -13 -14 -14 -14 -14 -15 -15 -16 -16 -16 -14 -15 -15 -15 -15 -14 -14 -13 -13 -12 -12 -11 -11 -10 -10 -10 -11 -10 -11 -10 -10 -10 -10 -9 -9 -9 -9 -9 -8
-10 -10 -10 -11 -12 -12 -13 -14 -14 -14 -14 -15 -15 -16 -17 -17 -15 -16 -16 -16 -15 -15 -14 -14 -14 -13 -12 -12 -11 -11 -11 -10 -10 -10 -9 -10 -11 -10 -10 -10 -10 -9 -9 -9 -9
-10 -10 -11 -11 -12 -13 -14 -14 -14 -15 -14 -15 -15 -16 -16 -16 -16 -17 -16 -16 -15 -15 -14 -14 -14 -13 -12 -12 -12 -11 -11 -10 -10 -10 -10 -9 -9 -10 -10 -10 -11 -10 -10 -10 -9
-11 -10 -11 -12 -12 -13 -14 -14 -15 -15 -15 -15 -15 -15 -15 -16 -16 -16 -16 -16 -16 -15 -15 -14 -13 -13 -12 -12 -12 -11 -10 -9 -11 -10 -10 -9 -9 -10 -9 -9 -10 -10 -10 -10 -9
-11 -11 -12 -12 -13 -14 -14 -14 -15 -15 -15 -15 -15 -16 -15 -16 -16 -16 -17 -16 -16 -15 -14 -14 -13 -12 -12 -11 -10 -10 -10 -10 -10 -10 -10 -9 -9 -10 -10 -10 -10 -10 -10 -10 -10
-11 -11 -12 -13 -14 -14 -15 -15 -15 -15 -16 -15 -16 -16 -16 -16 -17 -16 -16 -16 -15 -15 -14 -13 -13 -12 -12 -11 -11 -11 -11 -10 -10 -11 -11 -10 -9 -10 -10 -9 -10 -10 -10 -10 -10
-11 -11 -12 -13 -14 -15 -15 -16 -16 -16 -16 -16 -16 -16 -16 -16 -16 -15 -15 -15 -15 -14 -14 -13 -12 -13 -13 -12 -12 -11 -11 -11 -11 -12 -11 -11 -10 -9 -10 -10 -9 -9 -10 -10 -10
-11 -12 -13 -14 -15 -16 -16 -16 -17 -17 -16 -17 -16 -16 -16 -16 -16 -14 -14 -14 -15 -14 -13 -13 -14 -14 -13 -12 -12 -12 -11 -12 -12 -12 -12 -12 -11 -10 -9 -10 -10 -9 -10 -10 -9
-12 -13 -14 -15 -16 -16 -16 -17 -17 -18 -17 -17 -16 -16 -16 -15 -16 -15 -15 -14 -14 -14 -14 -15 -14 -13 -12 -12 -12 -11 -12 -12 -12 -13 -13 -12 -11 -10 -10 -9 -10 -10 -10 -10 -11
-13 -13 -14 -16 -16 -17 -18 -18 -18 -18 -18 -17 -16 -16 -16 -16 -15 -15 -16 -15 -15 -14 -14 -15 -14 -13 -13 -13 -13 -13 -13 -13 -13 -13 -14 -13 -13 -11 -11 -9 -9 -10 -11 -11 -11
-13 -14 -15 -16 -16 -18 -19 -19 -19 -19 -18 -18 -17 -17 -16 -16 -16 -16 -15 -15 -15 -15 -15 -15 -14 -13 -14 -14 -12 -15 -14 -15 -16 -16 -15 -13 -13 -11 -11 -10 -11 -11 -12 -12 -12
-13 -14 -15 -16 -17 -19 -20 -20 -20 -19 -18 -16 -16 -17 -17 -16 -16 -16 -15 -15 -15 -15 -15 -14 -14 -14 -14 -13 -15 -15 -17 -18 -18 -18 -11 -13 -15 -11 -12 -13 -12 -13 -13 -13 -13
-13 -14 -16 -16 -18 -20 -20 -20 -19 -19 -18 -16 -16 -16 -17 -16 -16 -15 -16 -15 -15 -15 -15 -14 -14 -14 -14 -14 -15 -17 -18 -18 -17 -17 -14 -16 -15 -12 -14 -14 -13 -13 -13 -13 -12
-13 -14 -15 -17 -19 -20 -19 -20 -19 -19 -18 -17 -16 -17 -16 -17 -16 -16 -15 -15 -15 -15 -14 -15 -14 -15 -15 -15 -16 -18 -18 -17 -18 -17 -17 -16 -15 -15 -15 -14 -13 -13 -13 -13 -12
-13 -14 -16 -18 -19 -19 -20 -19 -19 -19 -18 -17 -17 -18 -16 -17 -16 -16 -15 -16 -16 -15 -15 -16 -16 -16 -17 -18 -18 -18 -18 -18 -17 -17 -17 -16 -15 -15 -14 -14 -14 -13 -12 -12 -12
-13 -14 -16 -19 -19 -19 -19 -19 -18 -18 -17 -17 -17 -17 -16 -16 -16 -15 -16 -15 -16 -16 -16 -16 -16 -17 -18 -18 -17 -17 -17 -17 -17 -17 -16 -16 -15 -14 -14 -14 -14 -14 -14 -13 -14
-13 -14 -17 -18 -19 -19 -19 -18 -18 -18 -17 -17 -16 -17 -17 -16 -16 -15 -16 -16 -16 -17 -16 -16 -17 -17 -17 -17 -18 -17 -17 -17 -17 -17 -16 -17 -16 -15 -15 -15 -14 -14 -15 -15 -15
-13 -14 -17 -19 -19 -18 -19 -19 -19 -18 -18 -17 -17 -17 -17 -15 -16 -16 -16 -17 -17 -16 -17 -16 -16 -17 -17 -17 -17 -17 -17 -17 -17 -17 -17 -16 -16 -16 -15 -15 -15 -15 -15 -14 -14
-14 -15 -17 -20 -20 -19 -19 -18 -18 -18 -18 -17 -17 -17 -17 -16 -16 -16 -17 -17 -17 -17 -18 -17 -17 -16 -16 -17 -17 -17 -17 -17 -17 -17 -16 -16 -15 -15 -15 -14 -14 -14 -14 -14 -14
-14 -15 -17 -20 -20 -19 -19 -18 -18 -19 -18 -17 -17 -17 -17 -17 -16 -17 -17 -17 -17 -17 -18 -17 -17 -17 -17 -17 -17 -17 -17 -17 -17 -16 -16 -15 -15 -15 -15 -15 -14 -14 -14 -14 -14
-15 -17 -19 -20 -20 -20 -19 -18 -17 -18 -18 -17 -17 -17 -17 -17 -16 -17 -17 -17 -16 -17 -17 -17 -16 -16 -16 -16 -16 -17 -16 -16 -16 -17 -16 -15 -15 -16 -16 -15 -15 -15 -15 -14 -15
-16 -19 -21 -21 -21 -20 -19 -18 -18 -18 -18 -17 -17 -17 -16 -16 -17 -17 -16 -17 -16 -16 -16 -17 -17 -16 -16 -16 -16 -17 -16 -16 -16 -15 -15 -15 -15 -15 -15 -15 -15 -15 -15 -15 -14
Height
5775 5769 5762 5755 5747 5740 5731 5723 5714 5708 5701 5693 5687 5683 5683 5685 5690 5700 5713 5718 5723 5730 5742 5755 5763 5771 5780 5788 5796 5804 5812 5826 5842 5849 5856 5854 5858 5860 5866 5867 5868 5872 5876 5882 5884
5768 5761 5753 5746 5738 5729 5721 5713 5706 5698 5691 5682 5676 5671 5670 5673 5679 5690 5689 5701 5709 5721 5733 5746 5755 5762 5773 5780 5787 5795 5806 5823 5834 5842 5849 5849 5854 5855 5861 5862 5863 5865 5871 5879 5882
5761 5753 5746 5738 5730 5720 5712 5704 5696 5689 5681 5673 5667 5661 5660 5664 5670 5673 5684 5693 5702 5714 5722 5735 5743 5754 5765 5771 5781 5791 5802 5817 5826 5829 5840 5843 5849 5851 5852 5857 5857 5861 5866 5873 5878
5754 5747 5740 5731 5722 5713 5703 5694 5687 5680 5673 5666 5660 5655 5655 5658 5664 5668 5675 5685 5696 5705 5715 5726 5735 5747 5758 5766 5775 5784 5795 5807 5815 5820 5828 5836 5842 5844 5846 5850 5854 5854 5861 5869 5874
5747 5739 5731 5723 5714 5704 5695 5687 5679 5673 5665 5660 5655 5651 5652 5655 5658 5662 5669 5679 5689 5700 5711 5720 5730 5742 5752 5760 5766 5775 5787 5797 5806 5812 5821 5828 5834 5840 5842 5847 5850 5851 5855 5861 5867
5740 5732 5724 5716 5706 5698 5689 5682 5675 5668 5661 5655 5651 5648 5648 5650 5651 5660 5665 5672 5683 5693 5703 5714 5724 5735 5745 5752 5758 5767 5778 5788 5798 5806 5813 5823 5828 5834 5839 5841 5844 5848 5850 5853 5858
5733 5725 5717 5708 5700 5691 5683 5674 5668 5662 5656 5651 5647 5644 5643 5643 5648 5654 5660 5668 5676 5686 5696 5706 5715 5724 5736 5743 5750 5758 5769 5781 5793 5800 5807 5814 5821 5830 5833 5835 5837 5841 5846 5846 5850
5726 5718 5709 5700 5691 5683 5675 5669 5663 5657 5651 5646 5643 5640 5640 5642 5648 5654 5659 5664 5672 5680 5688 5693 5705 5718 5727 5735 5742 5748 5761 5776 5789 5794 5798 5805 5819 5826 5827 5831 5832 5835 5839 5842 5845
5718 5710 5701 5693 5685 5676 5668 5661 5656 5652 5646 5641 5638 5636 5637 5641 5644 5648 5656 5661 5666 5675 5682 5692 5699 5710 5721 5728 5737 5744 5759 5770 5779 5786 5788 5798 5810 5816 5820 5826 5827 5828 5829 5835 5839
5712 5703 5694 5685 5676 5668 5660 5654 5650 5645 5641 5636 5635 5634 5635 5637 5640 5645 5649 5656 5665 5672 5681 5690 5697 5707 5716 5724 5735 5744 5755 5763 5775 5779 5782 5790 5799 5805 5811 5817 5822 5823 5826 5825 5830
5704 5695 5685 5676 5666 5658 5651 5645 5642 5638 5633 5631 5630 5629 5632 5634 5638 5642 5647 5652 5660 5669 5679 5687 5697 5707 5717 5724 5731 5737 5745 5756 5766 5770 5775 5781 5787 5796 5802 5810 5817 5819 5821 5825 5824
5696 5685 5675 5664 5654 5646 5640 5633 5630 5626 5626 5621 5622 5624 5628 5631 5635 5639 5646 5651 5659 5668 5674 5685 5695 5704 5710 5717 5725 5731 5739 5749 5759 5762 5767 5772 5778 5786 5796 5803 5809 5812 5816 5819 5818
5687 5676 5666 5654 5643 5634 5626 5621 5618 5614 5614 5611 5615 5618 5624 5629 5632 5639 5647 5654 5662 5668 5676 5684 5693 5697 5704 5712 5720 5727 5734 5742 5752 5755 5757 5763 5769 5777 5786 5793 5800 5805 5809 5813 5815
5678 5666 5655 5645 5633 5621 5612 5607 5603 5601 5601 5604 5607 5611 5621 5626 5632 5638 5648 5655 5659 5666 5673 5681 5688 5695 5701 5707 5714 5719 5726 5733 5741 5746 5750 5755 5760 5769 5775 5783 5792 5800 5804 5806 5807
5668 5656 5645 5630 5623 5606 5599 5595 5592 5593 5594 5598 5600 5606 5615 5625 5630 5638 5646 5653 5659 5666 5673 5682 5684 5690 5697 5703 5707 5713 5717 5723 5730 5736 5740 5745 5750 5761 5767 5774 5786 5790 5794 5795 5798
5659 5645 5633 5620 5600 5593 5585 5583 5585 5588 5590 5595 5598 5604 5612 5618 5627 5634 5642 5650 5656 5663 5671 5676 5683 5688 5695 5698 5701 5706 5710 5716 5722 5726 5729 5739 5742 5748 5761 5770 5774 5779 5785 5788 5789
5651 5635 5618 5604 5589 5580 5575 5575 5579 5582 5588 5593 5598 5603 5610 5618 5623 5631 5639 5646 5653 5659 5666 5673 5680 5685 5687 5691 5695 5697 5702 5709 5716 5719 5728 5733 5733 5743 5756 5759 5766 5772 5776 5778 5781
5643 5627 5610 5591 5577 5572 5571 5573 5575 5580 5583 5588 5597 5600 5607 5615 5623 5631 5639 5646 5654 5662 5665 5672 5677 5680 5686 5689 5690 5692 5698 5703 5709 5714 5720 5729 5727 5740 5748 5751 5754 5761 5764 5767 5773
5635 5618 5600 5583 5573 5571 5572 5573 5576 5579 5582 5587 5594 5598 5603 5614 5623 5629 5639 5648 5655 5661 5668 5672 5677 5681 5686 5688 5690 5695 5696 5707 5708 5718 5718 5721 5730 5736 5739 5744 5750 5754 5756 5760 5766
5629 5609 5591 5577 5573 5574 5575 5576 5579 5581 5584 5588 5594 5600 5606 5609 5619 5628 5636 5645 5653 5661 5666 5671 5675 5681 5685 5689 5693 5696 5704 5706 5707 5712 5715 5720 5726 5732 5737 5740 5746 5750 5753 5757 5761
5621 5602 5586 5578 5575 5576 5578 5580 5582 5584 5587 5589 5593 5598 5605 5611 5620 5629 5639 5646 5651 5658 5665 5669 5675 5681 5684 5686 5691 5694 5697 5703 5708 5710 5714 5719 5726 5726 5729 5735 5741 5745 5748 5751 5755
5614 5599 5583 5579 5577 5575 5577 5581 5582 5584 5587 5590 5594 5598 5605 5613 5620 5627 5635 5646 5653 5657 5665 5670 5673 5679 5684 5686 5690 5693 5698 5702 5705 5708 5712 5715 5719 5721 5725 5729 5732 5737 5743 5747 5748
5607 5590 5576 5574 5574 5576 5577 5579 5580 5581 5586 5591 5595 5600 5606 5612 5620 5629 5636 5643 5650 5655 5662 5667 5672 5676 5681 5686 5689 5692 5695 5700 5703 5706 5709 5713 5717 5719 5720 5720 5725 5730 5735 5740 5744
5601 5585 5569 5565 5570 5574 5576 5578 5580 5582 5585 5588 5593 5598 5605 5613 5621 5628 5635 5639 5644 5653 5661 5665 5670 5675 5680 5685 5688 5690 5692 5696 5700 5703 5706 5710 5714 5715 5715 5716 5721 5724 5731 5736 5740
5592 5576 5561 5560 5565 5572 5574 5577 5580 5584 5586 5589 5593 5597 5603 5612 5620 5628 5632 5639 5644 5648 5655 5661 5668 5674 5677 5681 5684 5687 5690 5693 5696 5699 5703 5707 5710 5713 5713 5712 5713 5719 5727 5732 5735
5590 5576 5562 5560 5561 5568 5572 5576 5579 5584 5586 5590 5593 5597 5603 5609 5619 5626 5631 5637 5641 5646 5650 5658 5664 5670 5675 5678 5681 5685 5687 5690 5692 5696 5699 5703 5708 5710 5713 5712 5715 5718 5721 5725 5725
5587 5575 5568 5566 5567 5573 5574 5577 5580 5585 5588 5590 5593 5597 5604 5610 5618 5623 5629 5634 5640 5645 5650 5655 5661 5667 5672 5675 5679 5683 5683 5686 5687 5691 5695 5698 5703 5706 5709 5712 5712 5716 5717 5714 5711
Wind_Speed
37 40 41 40 42 39 39 45 44 39 42 44 41 40 39 41 46 55 52 56 60 62 60 61 61 60 60 60 60 62 63 58 51 47 48 49 52 56 44 41 39 34 31 30 23
39 40 40 39 43 41 39 45 43 39 41 40 36 35 36 37 40 52 56 58 61 59 59 60 60 60 61 61 60 64 63 56 55 50 48 49 50 58 54 42 43 42 34 33 31
41 39 40 42 43 40 40 43 43 39 40 36 32 27 27 31 37 45 53 55 58 57 58 59 61 61 61 63 60 60 62 57 54 56 52 49 49 53 56 52 45 47 41 35 33
40 40 41 42 41 40 40 42 38 37 38 32 27 23 23 27 33 41 48 53 55 55 55 57 61 61 61 63 61 60 57 55 59 58 60 53 49 53 56 54 51 46 42 40 36
42 40 41 42 41 39 41 45 38 35 33 29 24 19 19 23 30 37 43 49 52 52 51 53 56 58 59 61 62 61 55 53 55 61 59 61 54 50 52 56 52 51 52 47 40
41 41 41 42 41 39 42 46 46 34 33 27 21 17 17 22 30 31 39 43 48 49 48 50 52 55 55 57 60 61 57 52 50 57 63 60 61 52 48 53 57 59 48 54 55
41 40 41 43 43 39 42 44 43 33 31 26 20 13 17 24 25 31 36 38 45 46 46 45 49 52 55 57 57 59 57 55 50 54 57 62 64 59 51 50 53 58 53 49 46
42 42 44 43 44 40 41 42 44 31 33 25 22 17 18 17 17 24 32 37 40 44 46 51 48 49 52 56 57 58 56 54 51 51 55 61 61 57 63 53 52 55 58 52 50
41 44 46 44 44 41 40 41 40 39 33 24 21 21 20 17 23 28 31 34 39 40 43 47 51 51 51 54 56 57 57 58 52 54 56 58 59 64 63 64 60 57 57 59 58
45 46 47 47 45 42 43 40 39 34 33 26 19 18 14 21 29 30 33 34 38 39 40 41 43 46 49 52 54 55 54 55 52 55 57 57 57 60 65 65 68 65 62 62 60
46 49 50 49 47 44 41 39 35 36 31 27 20 19 18 23 27 32 36 37 38 38 34 35 37 37 39 45 50 52 53 52 51 54 56 57 57 56 60 61 65 68 69 66 65
51 51 54 49 47 43 41 39 38 36 28 27 21 21 23 23 30 32 37 39 38 39 39 37 33 33 36 40 44 48 48 49 49 50 56 57 58 57 55 55 58 65 66 68 68
54 54 56 50 48 46 44 41 41 35 25 27 20 23 25 27 32 29 31 32 31 33 32 30 27 30 34 37 40 43 45 45 46 50 54 56 58 57 55 56 56 58 58 60 63
57 59 60 53 52 48 47 47 37 24 21 21 19 26 25 29 31 30 28 29 34 32 28 25 28 29 31 33 36 42 46 47 48 50 55 57 58 57 57 56 51 52 55 58 59
62 65 63 61 53 56 51 38 22 17 12 14 20 27 27 25 29 29 30 31 29 28 30 28 34 31 29 26 31 38 43 48 48 51 53 57 60 58 57 56 51 50 52 51 53
66 69 69 62 68 50 39 27 15 13 11 9 15 22 32 33 28 31 32 34 33 32 30 32 27 27 19 21 25 32 39 38 38 41 53 56 60 61 57 55 51 45 45 45 47
69 72 72 76 57 40 26 16 10 12 17 12 15 19 32 33 33 32 32 37 36 37 35 31 27 27 27 25 25 34 38 38 36 38 54 54 54 59 54 46 39 41 35 34 38
73 75 77 67 47 21 12 5 6 16 21 9 15 27 37 35 33 32 30 34 33 29 32 30 29 29 24 23 28 39 40 41 38 42 45 28 41 46 37 40 40 41 44 44 41
77 78 81 56 22 10 7 4 9 16 19 5 16 36 41 36 34 34 32 28 27 28 25 24 23 24 20 23 24 33 38 28 30 26 27 31 31 33 32 33 33 39 50 53 42
80 82 70 36 10 8 9 7 11 16 12 6 29 37 38 42 38 36 34 30 27 23 20 23 24 21 26 22 23 25 28 27 30 25 17 20 19 27 33 23 23 27 32 33 35
82 85 61 13 8 7 11 2 8 16 3 7 28 31 38 39 35 33 28 26 28 23 22 30 29 30 32 27 24 24 30 30 22 21 18 18 24 28 31 32 23 30 34 31 25
83 86 50 2 4 6 11 12 13 16 4 12 22 29 35 35 34 35 31 27 27 27 26 29 32 33 29 26 24 26 25 26 22 25 21 19 26 36 32 33 33 30 37 30 25
86 86 47 11 12 11 10 11 14 16 5 5 24 21 33 36 35 32 30 28 28 30 31 32 32 34 32 28 29 26 24 23 25 24 25 21 16 23 30 31 29 28 37 37 29
87 83 45 13 20 14 14 10 13 16 3 9 17 21 31 34 34 32 30 33 36 32 32 32 35 32 26 26 27 26 23 24 28 28 22 20 20 24 22 24 33 38 39 34 34
89 79 41 8 29 25 21 16 14 17 3 7 20 28 30 35 35 35 36 34 37 39 39 34 32 29 24 29 27 27 29 26 30 27 27 22 20 18 26 21 32 38 34 32 30
87 64 26 1 20 21 21 19 19 16 11 8 16 29 33 37 35 39 36 37 39 40 42 36 29 28 25 19 25 27 29 30 30 25 28 28 23 20 19 16 5 11 7 20 31
84 49 16 4 11 20 19 16 17 15 16 8 19 31 30 27 34 38 37 36 38 38 38 38 32 27 24 22 26 28 29 28 28 28 27 27 24 23 22 12 10 12 14 23 34
Wind_Direction
320 320 318 318 319 317 309 305 310 300 297 295 288 277 261 249 235 225 225 220 218 218 216 214 213 213 214 217 216 217 216 213 205 202 204 215 220 215 210 216 222 217 218 214 203
322 325 320 323 324 322 312 310 316 305 304 301 293 281 261 246 228 219 217 216 216 214 214 212 212 213 211 217 217 217 216 214 208 206 203 215 219 223 217 218 225 222 221 223 226
324 325 325 327 330 324 315 311 315 310 308 306 300 285 257 236 219 216 214 214 213 211 212 208 210 211 211 215 217 217 214 212 206 210 207 214 217 225 228 225 229 231 228 221 232
327 328 329 329 331 327 317 310 318 315 312 309 303 286 256 230 215 214 211 211 210 209 210 210 210 209 209 214 217 218 215 215 208 210 205 212 218 221 229 233 231 232 234 229 229
327 328 330 328 332 327 316 312 320 318 316 310 300 286 251 226 215 213 209 209 207 208 208 210 211 210 210 213 216 218 215 215 215 210 211 209 214 222 226 231 236 238 239 236 236
327 328 331 331 329 323 315 315 322 319 315 308 291 275 247 228 219 212 207 205 205 205 205 207 207 209 209 212 217 218 217 216 213 216 213 216 216 218 224 230 233 236 244 245 242
330 331 333 333 329 320 313 311 319 326 313 306 286 257 233 224 218 204 201 200 202 202 201 204 205 207 206 210 214 219 220 217 212 217 218 214 224 217 219 228 237 237 236 243 241
331 333 333 334 330 317 311 310 316 325 316 302 287 238 236 237 206 199 194 194 198 200 201 199 201 203 205 209 213 218 218 217 215 217 217 217 218 225 226 225 237 239 240 240 244
334 333 335 333 327 315 309 309 311 319 314 296 284 231 227 208 198 191 190 197 197 198 201 204 201 200 203 207 212 217 217 216 213 217 221 219 216 217 223 227 231 239 246 247 249
336 336 333 331 323 315 308 304 308 312 308 294 274 230 209 204 203 191 190 192 198 195 200 203 206 206 204 209 213 217 218 218 216 219 223 224 218 218 221 224 228 235 240 247 250
337 338 334 329 322 316 310 306 303 306 301 294 263 227 220 200 193 197 188 189 190 191 196 202 210 211 210 211 212 215 218 217 216 220 225 226 224 221 224 223 226 232 240 245 250
338 336 334 327 321 316 309 302 298 296 293 284 254 226 213 198 196 195 189 189 187 188 189 194 199 205 208 209 212 215 218 217 215 219 225 229 230 226 223 225 225 231 235 241 247
338 336 334 328 320 315 307 302 301 294 279 265 240 221 204 189 192 197 192 185 184 192 189 190 191 196 201 206 210 214 217 218 216 217 224 229 230 231 227 224 226 229 236 242 245
337 334 334 329 322 313 306 307 303 283 272 241 226 215 199 190 189 192 195 188 185 182 181 172 177 186 196 201 208 215 217 218 216 217 221 228 234 232 234 230 225 231 236 239 243
337 336 333 329 325 311 307 310 300 273 252 221 209 202 182 185 188 180 184 189 182 184 180 174 187 189 190 195 204 210 213 215 216 220 220 223 230 231 236 238 234 232 236 242 245
338 335 332 331 322 313 312 304 283 246 214 201 197 207 182 181 176 180 177 185 183 184 179 188 188 188 189 213 206 201 209 208 212 220 223 225 229 231 232 237 242 245 242 242 249
339 336 335 334 320 318 308 297 251 199 170 182 193 196 182 183 177 177 180 186 179 177 182 190 190 186 193 198 197 201 193 193 203 212 223 225 230 233 235 239 240 236 233 238 242
341 338 337 335 326 330 323 291 176 167 177 122 175 199 179 179 177 176 177 184 180 181 192 194 189 198 198 196 187 186 189 193 201 217 226 214 230 233 242 236 234 230 228 233 238
342 339 343 334 339 359 3 85 149 176 189 105 182 184 174 177 185 182 176 184 183 187 192 193 194 184 180 169 172 184 194 193 215 216 214 217 214 208 207 203 208 220 229 233 235
342 342 346 339 8 59 49 125 162 190 170 214 172 178 187 176 183 178 180 181 183 185 190 176 172 170 156 162 174 186 196 208 213 226 229 222 205 206 202 194 210 212 221 225 226
343 344 348 355 79 98 53 300 158 183 102 147 180 182 191 182 178 179 176 182 181 178 186 176 170 167 172 182 189 194 196 205 235 254 229 236 215 209 208 219 224 223 225 218 211
344 344 349 351 99 152 233 220 181 162 285 173 182 194 187 182 179 179 172 186 186 174 188 185 172 174 178 179 189 202 216 216 227 239 233 248 250 242 251 257 240 221 218 219 207
344 346 346 232 219 199 197 187 192 182 315 157 190 195 180 186 181 177 171 178 177 174 186 190 182 180 191 190 184 190 201 220 234 242 247 249 241 241 250 247 236 229 220 222 213
345 347 348 238 215 195 189 208 218 206 300 157 176 205 194 192 180 175 173 176 174 172 182 194 190 188 191 195 199 206 213 217 234 237 245 245 258 272 263 262 225 226 225 228 224
346 349 345 208 210 210 217 223 222 222 205 185 179 198 197 187 181 172 178 180 181 174 180 196 197 192 196 195 214 218 228 226 235 238 237 245 264 263 266 294 217 218 228 230 230
347 350 350 160 196 184 204 209 210 209 222 180 183 186 196 186 190 176 181 184 188 186 185 197 203 196 196 205 205 216 227 235 239 243 237 240 246 257 272 293 184 167 236 250 246
348 352 11 57 163 191 197 198 202 207 233 198 173 191 191 200 188 188 190 186 193 195 194 198 207 212 209 216 215 222 233 236 243 242 247 252 260 270 279 281 281 265 269 277 240